Location: Castelbiague
(43.0361°N, 0.9246°E)
Time: 22:53:23
(UTC+00:00)

USA 215 - Pass Details

Date: 22 October 2021
Orbit: 1099 x 1109 km, 123.0° (Epoch: 20 November)

Event Time Altitude Azimuth Distance (km) Brightness Sun altitude
Exits shadow 18:50:08 13° 39° (NE) 2,735 5.0 -20.4°
Maximum altitude 18:54:58 31° 344° (NNW) 1,828 4.6 -21.2°
Drops below altitude 10° 19:00:33 10° 286° (WNW) 2,964 6.6 -22.3°
Sets 19:03:18 0° 276° (W) 3,923 7.7 -22.8°
